Date String (YYYY-MM-DD hh:mm:ss) UTC,Instrument flags,absolute air pressure of the measurement (hPa),sample flow rate (lpm),inlet stack bypass flow (lpm),air temperature of the measurement (°C),ambient temperature measured by the external sensor (°C),aerosol sample conditioner tube jacket temperature (°C),OPC LED temperature (°C),internal box temperature (°C),relative humidity of the measurement (%),span deviation,mass concentration of particles derived from Lorenz-Mie calculation of OPC scattering (μg/m³),mass concentration of particles derived from Lorenz-Mie calculation of OPC scattering (μg/m³),mass concentration of particles derived from Lorenz-Mie calculation of OPC scattering (μg/m³)
DateTimeUTC,F1_M11,P_M11,Q1_M11,Q2_M11,T1_M11,T2_M11,T3_M11,T4_M11,T5_M11,U1_M11,ZSPAN_M11,X2_M11,X0_M11,X1_M11
2024-06-16 19:00:00,SystemResetWarning,0824.4,5.00,000.00,029.5,029.1,000.0,037.5,031.3,025.9,0000.0,0006.85,0025.00,0004.54
2024-06-16 19:01:00,SystemResetWarning,0824.3,4.99,000.00,029.5,028.6,000.0,037.6,031.1,026.4,0000.0,0006.87,0025.08,0004.54
2024-06-16 19:02:00,SystemResetWarning,0824.3,5.00,000.00,029.2,026.3,000.0,037.6,030.0,026.5,0000.0,0006.86,0025.59,0004.52
2024-06-16 19:03:00,SystemResetWarning,0824.1,5.02,000.00,028.8,025.4,000.0,037.6,029.5,027.0,0000.0,0006.87,0024.29,0004.51
2024-06-16 19:04:00,SystemResetWarning,0824.2,4.99,000.00,028.7,025.9,000.0,037.5,029.7,027.4,0000.0,0006.81,0025.04,0004.50
2024-06-16 19:05:00,SystemResetWarning,0824.3,4.99,000.00,028.7,026.3,000.0,037.4,029.9,028.0,0000.0,0006.78,0026.09,0004.50
2024-06-16 19:06:00,SystemResetWarning,0824.3,5.01,000.00,028.7,026.8,000.0,037.3,030.2,027.3,0000.0,0006.75,0026.72,0004.48
2024-06-16 19:07:00,SystemResetWarning,0824.3,5.01,000.00,028.8,027.2,000.0,037.3,030.4,027.1,0000.0,0006.67,0027.51,0004.48
2024-06-16 19:08:00,SystemResetWarning,0824.3,5.00,000.00,028.8,027.6,000.0,037.3,030.5,026.7,0000.0,0006.58,0027.86,0004.48
2024-06-16 19:09:00,SystemResetWarning,0824.3,4.99,000.00,028.9,027.9,000.0,037.3,030.7,026.8,0000.0,0006.60,0028.46,0004.48
2024-06-16 19:10:00,SystemResetWarning,0824.3,5.00,000.00,029.0,028.2,000.0,037.3,030.8,026.2,0000.0,0006.57,0026.93,0004.47
2024-06-16 19:11:00,SystemResetWarning,0824.3,5.00,000.00,029.1,028.4,000.0,037.3,030.9,026.1,0000.0,0006.58,0026.67,0004.47
2024-06-16 19:12:00,SystemResetWarning,0824.2,5.00,000.00,029.1,028.6,000.0,037.3,031.0,026.5,0000.0,0006.61,0026.53,0004.47
2024-06-16 19:13:00,SystemResetWarning,0824.3,5.00,000.00,029.2,028.8,000.0,037.3,031.1,026.6,0000.0,0006.59,0026.99,0004.49
2024-06-16 19:14:00,SystemResetWarning,0824.3,5.00,000.00,029.3,028.9,000.0,037.4,031.2,025.8,0000.0,0006.53,0027.44,0004.49
2024-06-16 19:15:00,SystemResetWarning,0824.3,5.01,000.00,029.4,029.0,000.0,037.4,031.3,025.8,0000.0,0006.50,0027.57,0004.50
2024-06-16 19:16:00,SystemResetWarning,0824.3,5.00,000.00,029.5,029.1,000.0,037.5,031.3,025.8,0000.0,0006.50,0027.38,0004.50
2024-06-16 19:17:00,SystemResetWarning,0824.2,4.98,000.00,029.3,027.4,000.0,037.6,030.5,025.8,0000.0,0006.43,0027.38,0004.50
2024-06-16 19:18:00,SystemResetWarning,0824.1,5.02,000.00,028.9,025.5,000.0,037.6,029.5,026.3,0000.0,0006.44,0026.57,0004.51
2024-06-16 19:19:00,SystemResetWarning,0824.1,5.00,000.00,028.7,025.6,000.0,037.5,029.5,027.0,0000.0,0006.48,0026.67,0004.52
2024-06-16 19:20:00,SystemResetWarning,0824.2,4.99,000.00,028.6,026.1,000.0,037.4,029.8,027.0,0000.0,0006.47,0026.57,0004.52
2024-06-16 19:21:00,SystemResetWarning,0824.1,5.00,000.00,028.6,026.6,000.0,037.3,030.0,026.9,0000.0,0006.48,0028.49,0004.54
2024-06-16 19:22:00,SystemResetWarning,0824.1,5.01,000.00,028.7,027.0,000.0,037.3,030.2,027.4,0000.0,0006.51,0029.77,0004.54
2024-06-16 19:23:00,SystemResetWarning,0824.1,5.01,000.00,028.8,027.4,000.0,037.2,030.4,027.1,0000.0,0006.44,0029.81,0004.54
2024-06-16 19:24:00,SystemResetWarning,0824.2,5.00,000.00,028.8,027.8,000.0,037.2,030.5,026.7,0000.0,0006.46,0028.92,0004.54
2024-06-16 19:25:00,SystemResetWarning,0824.2,5.00,000.00,028.9,028.0,000.0,037.2,030.7,026.0,0000.0,0006.42,0028.97,0004.54
2024-06-16 19:26:00,SystemResetWarning,0824.2,5.00,000.00,029.0,028.3,000.0,037.2,030.8,026.1,0000.0,0006.48,0028.60,0004.56
2024-06-16 19:27:00,SystemResetWarning,0824.1,5.00,000.00,029.1,028.5,000.0,037.3,030.9,026.3,0000.0,0006.52,0028.37,0004.58
2024-06-16 19:28:00,SystemResetWarning,0824.3,5.00,000.00,029.1,028.7,000.0,037.3,031.0,026.0,0000.0,0006.54,0027.54,0004.59
2024-06-16 19:29:00,SystemResetWarning,0824.3,5.00,000.00,029.2,028.8,000.0,037.3,031.1,025.6,0000.0,0006.51,0027.08,0004.61
2024-06-16 19:30:00,SystemResetWarning,0824.3,4.98,000.00,029.3,028.9,000.0,037.4,031.2,026.0,0000.0,0006.57,0026.43,0004.61
2024-06-16 19:31:00,SystemResetWarning,0824.3,5.01,000.00,029.4,029.1,000.0,037.4,031.3,026.1,0000.0,0006.61,0026.04,0004.63
2024-06-16 19:32:00,SystemResetWarning,0824.2,5.00,000.00,029.4,028.4,000.0,037.5,030.9,025.9,0000.0,0006.61,0024.25,0004.63
2024-06-16 19:33:00,SystemResetWarning,0824.1,5.00,000.00,029.1,026.1,000.0,037.5,029.9,026.2,0000.0,0006.64,0023.34,0004.65
2024-06-16 19:34:00,SystemResetWarning,0824.0,5.01,000.00,028.7,025.4,000.0,037.5,029.4,026.9,0000.0,0006.72,0024.29,0004.65
2024-06-16 19:35:00,SystemResetWarning,0824.0,5.01,000.00,028.6,025.9,000.0,037.4,029.6,027.2,0000.0,0006.71,0025.52,0004.64
2024-06-16 19:36:00,SystemResetWarning,0824.0,4.99,000.00,028.6,026.3,000.0,037.3,029.9,027.3,0000.0,0006.70,0025.69,0004.63
2024-06-16 19:37:00,SystemResetWarning,0824.0,4.99,000.00,028.6,026.8,000.0,037.2,030.1,027.0,0000.0,0006.75,0024.57,0004.62
2024-06-16 19:38:00,SystemResetWarning,0824.0,5.01,000.00,028.7,027.2,000.0,037.2,030.3,026.8,0000.0,0006.70,0024.21,0004.61
2024-06-16 19:39:00,SystemResetWarning,0824.0,5.00,000.00,028.8,027.6,000.0,037.2,030.5,026.4,0000.0,0006.72,0024.47,0004.61
2024-06-16 19:40:00,SystemResetWarning,0824.0,4.99,000.00,028.9,027.9,000.0,037.2,030.6,026.6,0000.0,0006.78,0025.02,0004.61
2024-06-16 19:41:00,SystemResetWarning,0824.0,5.00,000.00,028.9,028.2,000.0,037.2,030.8,026.2,0000.0,0006.73,0025.25,0004.60
2024-06-16 19:42:00,SystemResetWarning,0824.0,5.00,000.00,029.0,028.4,000.0,037.2,030.9,026.3,0000.0,0006.62,0025.70,0004.57
2024-06-16 19:43:00,SystemResetWarning,0823.9,5.01,000.00,029.1,028.6,000.0,037.2,031.0,026.0,0000.0,0006.61,0025.60,0004.56
2024-06-16 19:44:00,SystemResetWarning,0823.9,5.00,000.00,029.2,028.7,000.0,037.3,031.1,026.3,0000.0,0006.60,0025.90,0004.56
2024-06-16 19:45:00,SystemResetWarning,0823.9,5.00,000.00,029.3,028.9,000.0,037.3,031.2,025.9,0000.0,0006.56,0025.13,0004.57
2024-06-16 19:46:00,SystemResetWarning,0823.9,5.00,000.00,029.4,029.0,000.0,037.4,031.3,026.0,0000.0,0006.56,0023.50,0004.56
2024-06-16 19:47:00,SystemResetWarning,0824.0,5.01,000.00,029.4,029.1,000.0,037.4,031.3,026.4,0000.0,0006.63,0022.87,0004.56
2024-06-16 19:48:00,SystemResetWarning,0824.0,4.99,000.00,029.5,029.1,000.0,037.5,031.3,025.8,0000.0,0006.59,0023.00,0004.56
2024-06-16 19:49:00,SystemResetWarning,0823.9,4.99,000.00,029.4,027.5,000.0,037.6,030.6,025.6,0000.0,0006.59,0022.90,0004.56
2024-06-16 19:50:00,SystemResetWarning,0823.8,5.01,000.00,029.0,025.6,000.0,037.6,029.7,026.4,0000.0,0006.56,0021.90,0004.55
2024-06-16 19:51:00,SystemResetWarning,0823.8,5.01,000.00,028.7,025.7,000.0,037.5,029.6,026.9,0000.0,0006.55,0021.49,0004.55
2024-06-16 19:52:00,SystemResetWarning,0823.8,5.00,000.00,028.7,026.2,000.0,037.4,029.8,027.1,0000.0,0006.51,0020.76,0004.55
2024-06-16 19:53:00,SystemResetWarning,0823.9,5.00,000.00,028.7,026.7,000.0,037.3,030.1,026.5,0000.0,0006.55,0021.27,0004.56
2024-06-16 19:54:00,SystemResetWarning,0824.0,5.00,000.00,028.8,027.1,000.0,037.3,030.3,026.2,0000.0,0006.58,0022.03,0004.56
2024-06-16 19:55:00,SystemResetWarning,0824.0,5.01,000.00,028.8,027.5,000.0,037.3,030.5,026.2,0000.0,0006.56,0022.22,0004.55
2024-06-16 19:56:00,SystemResetWarning,0824.0,5.00,000.00,028.9,027.9,000.0,037.3,030.6,026.2,0000.0,0006.55,0023.43,0004.54
2024-06-16 19:57:00,SystemResetWarning,0823.9,5.00,000.00,029.0,028.1,000.0,037.3,030.8,025.3,0000.0,0006.55,0024.15,0004.56
2024-06-16 19:58:00,SystemResetWarning,0824.0,5.00,000.00,029.0,028.4,000.0,037.3,030.9,025.2,0000.0,0006.46,0024.48,0004.58
2024-06-16 19:59:00,SystemResetWarning,0824.0,5.00,000.00,029.1,028.6,000.0,037.3,031.0,025.4,0000.0,0006.47,0025.19,0004.60
